User: anonymous   Login
Location: Arbon
(43.0005°N, 0.7472°E)
Time: 07:49:27
(UTC+00:00)
Language:

Cosmos 2026 Rocket - Orbit

View from above orbital plane
View from above orbital plane
View from above satellite
View from above satellite

Ground track
Ground track

The orbit data is extracted from the following two-line orbital elements,

1 20046U 89042B   20299.90859318 +.00000171 +00000-0 +15386-3 0  9995
2 20046 082.9334 108.9318 0041103 227.4878 132.2806 13.78203724578010
Epoch (UTC): 25 October 2020 21:48:22
Eccentricity: 0.0041103
inclination: 82.9334°
perigee height: 940 km
apogee height: 1000 km
right ascension of ascending node: 108.9318°
argument of perigee: 227.4878°
revolutions per day: 13.78203724
mean anomaly at epoch: 132.2806°
orbit number at epoch: 57801

The dashed part of the orbit path shows where the satellite is in the earth's shadow,  

DLR